| time (UTC) | temp C | wind direction | speed KPH | gust KPH | rain 1hr cm | rain 24hr cm | rain mn cm | humidity % | barometer mb |
| 20260507171503 | 14 | 205 | 1.6 | 11.3 | 0.00 | 0.00 | 0.00 | 63 | 1014.1 |
| 20260507171025 | 14 | 196 | 1.6 | 11.3 | 0.00 | 0.00 | 0.00 | 62 | 1014.1 |
| 20260507170525 | 14 | 192 | 1.6 | 8.0 | 0.00 | 0.00 | 0.00 | 62 | 1014.2 |
| 20260507170004 | 14 | 196 | 1.6 | 11.3 | 0.00 | 0.00 | 0.00 | 63 | 1014.2 |
| 20260507165504 | 13 | 198 | 3.2 | 11.3 | 0.00 | 0.00 | 0.00 | 62 | 1014.3 |
| 20260507165004 | 13 | 208 | 3.2 | 11.3 | 0.00 | 0.00 | 0.00 | 62 | 1014.4 |
| 20260507164503 | 13 | 207 | 4.8 | 16.1 | 0.00 | 0.00 | 0.00 | 62 | 1014.3 |
| 20260507164003 | 13 | 207 | 4.8 | 16.1 | 0.00 | 0.00 | 0.00 | 62 | 1014.3 |
| 20260507163503 | 13 | 221 | 4.8 | 11.3 | 0.00 | 0.00 | 0.00 | 62 | 1014.3 |
| 20260507163003 | 13 | 220 | 4.8 | 11.3 | 0.00 | 0.00 | 0.00 | 64 | 1014.3 |
| 20260507162503 | 13 | 213 | 3.2 | 11.3 | 0.00 | 0.00 | 0.00 | 62 | 1014.4 |
| 20260507162026 | 13 | 206 | 3.2 | 11.3 | 0.00 | 0.00 | 0.00 | 64 | 1014.3 |
| 20260507161504 | 13 | 183 | 1.6 | 11.3 | 0.00 | 0.00 | 0.00 | 64 | 1014.4 |
| 20260507161003 | 13 | 192 | 3.2 | 16.1 | 0.00 | 0.00 | 0.00 | 63 | 1014.4 |
| 20260507160504 | 13 | 193 | 3.2 | 16.1 | 0.00 | 0.00 | 0.00 | 65 | 1014.4 |
| 20260507160003 | 13 | 186 | 3.2 | 17.7 | 0.00 | 0.00 | 0.00 | 64 | 1014.4 |
| 20260507155504 | 13 | 193 | 3.2 | 17.7 | 0.00 | 0.00 | 0.00 | 64 | 1014.4 |
| 20260507155004 | 13 | 208 | 4.8 | 12.9 | 0.00 | 0.00 | 0.00 | 65 | 1014.4 |
| 20260507154503 | 12 | 210 | 3.2 | 12.9 | 0.00 | 0.00 | 0.00 | 64 | 1014.4 |
| 20260507154005 | 13 | 202 | 1.6 | 11.3 | 0.00 | 0.00 | 0.00 | 65 | 1014.5 |
| 20260507153504 | 13 | 184 | 1.6 | 11.3 | 0.00 | 0.00 | 0.00 | 64 | 1014.6 |
| 20260507153003 | 13 | 191 | 1.6 | 11.3 | 0.00 | 0.00 | 0.00 | 64 | 1014.6 |
| 20260507152504 | 13 | 216 | 1.6 | 8.0 | 0.00 | 0.00 | 0.00 | 64 | 1014.6 |
| 20260507152003 | 13 | 196 | 3.2 | 16.1 | 0.00 | 0.00 | 0.00 | 64 | 1014.6 |
| 20260507151504 | 13 | 186 | 3.2 | 16.1 | 0.00 | 0.00 | 0.00 | 63 | 1014.6 |
| 20260507151005 | 13 | 188 | 3.2 | 16.1 | 0.00 | 0.00 | 0.00 | 63 | 1014.6 |
| 20260507150503 | 13 | 180 | 4.8 | 19.3 | 0.00 | 0.00 | 0.00 | 62 | 1014.7 |
| 20260507150004 | 13 | 177 | 3.2 | 19.3 | 0.00 | 0.00 | 0.00 | 64 | 1014.7 |
| 20260507145504 | 13 | 174 | 3.2 | 19.3 | 0.00 | 0.00 | 0.00 | 63 | 1014.7 |
| 20260507145004 | 13 | 170 | 3.2 | 19.3 | 0.00 | 0.00 | 0.00 | 65 | 1014.7 |
| 20260507144503 | 13 | 188 | 4.8 | 12.9 | 0.00 | 0.00 | 0.00 | 67 | 1014.8 |
| 20260507144004 | 13 | 207 | 4.8 | 12.9 | 0.00 | 0.00 | 0.00 | 66 | 1014.8 |
| 20260507143503 | 12 | 200 | 4.8 | 12.9 | 0.00 | 0.00 | 0.00 | 67 | 1014.8 |
| 20260507143025 | 12 | 184 | 4.8 | 16.1 | 0.00 | 0.00 | 0.00 | 67 | 1014.9 |
| 20260507142504 | 12 | 194 | 6.4 | 16.1 | 0.00 | 0.00 | 0.00 | 67 | 1014.9 |
| 20260507142003 | 12 | 201 | 6.4 | 22.5 | 0.00 | 0.00 | 0.00 | 66 | 1015.0 |
| 20260507141503 | 12 | 197 | 4.8 | 22.5 | 0.00 | 0.00 | 0.00 | 66 | 1015.0 |
| 20260507141003 | 12 | 190 | 4.8 | 17.7 | 0.00 | 0.00 | 0.00 | 65 | 1015.0 |
| 20260507140503 | 12 | 152 | 4.8 | 17.7 | 0.00 | 0.00 | 0.00 | 66 | 1015.0 |
| 20260507140003 | 12 | 172 | 6.4 | 17.7 | 0.00 | 0.00 | 0.00 | 66 | 1015.0 |
| 20260507135503 | 12 | 204 | 6.4 | 17.7 | 0.00 | 0.00 | 0.00 | 66 | 1015.0 |
| 20260507135005 | 12 | 207 | 6.4 | 17.7 | 0.00 | 0.00 | 0.00 | 65 | 1015.0 |
| 20260507134503 | 12 | 203 | 8.0 | 17.7 | 0.00 | 0.00 | 0.00 | 64 | 1015.1 |
| 20260507134003 | 12 | 200 | 8.0 | 19.3 | 0.00 | 0.00 | 0.00 | 65 | 1015.2 |
| 20260507133504 | 12 | 200 | 8.0 | 22.5 | 0.00 | 0.00 | 0.00 | 63 | 1015.2 |
| 20260507133025 | 12 | 196 | 6.4 | 22.5 | 0.00 | 0.00 | 0.00 | 64 | 1015.2 |
| 20260507132505 | 12 | 189 | 6.4 | 17.7 | 0.00 | 0.00 | 0.00 | 64 | 1015.2 |
| 20260507132004 | 13 | 180 | 6.4 | 22.5 | 0.00 | 0.00 | 0.00 | 65 | 1015.2 |
| 20260507131524 | 13 | 192 | 6.4 | 22.5 | 0.00 | 0.00 | 0.00 | 64 | 1015.3 |
| 20260507131026 | 13 | 186 | 6.4 | 22.5 | 0.00 | 0.00 | 0.00 | 63 | 1015.3 |
| 20260507130503 | 13 | 179 | 6.4 | 17.7 | 0.00 | 0.00 | 0.00 | 63 | 1015.2 |
| 20260507130003 | 13 | 182 | 6.4 | 25.7 | 0.00 | 0.00 | 0.00 | 63 | 1015.2 |
| 20260507125525 | 13 | 179 | 6.4 | 25.7 | 0.00 | 0.00 | 0.00 | 62 | 1015.1 |
| 20260507125003 | 13 | 167 | 8.0 | 22.5 | 0.00 | 0.00 | 0.00 | 63 | 1015.2 |
| 20260507124524 | 13 | 173 | 8.0 | 24.1 | 0.00 | 0.00 | 0.00 | 63 | 1015.2 |
| 20260507124003 | 13 | 200 | 8.0 | 33.8 | 0.00 | 0.00 | 0.00 | 62 | 1015.2 |
| 20260507123503 | 13 | 199 | 8.0 | 33.8 | 0.00 | 0.00 | 0.00 | 62 | 1015.2 |
| 20260507123004 | 13 | 191 | 6.4 | 22.5 | 0.00 | 0.00 | 0.00 | 61 | 1015.2 |
| 20260507122504 | 13 | 189 | 6.4 | 24.1 | 0.00 | 0.00 | 0.00 | 61 | 1015.1 |
| 20260507122004 | 13 | 195 | 8.0 | 24.1 | 0.00 | 0.00 | 0.00 | 62 | 1015.2 |
| 20260507121504 | 13 | 203 | 8.0 | 22.5 | 0.00 | 0.00 | 0.00 | 61 | 1015.2 |
| 20260507121024 | 13 | 208 | 8.0 | 22.5 | 0.00 | 0.00 | 0.00 | 60 | 1015.1 |
| 20260507120505 | 14 | 202 | 6.4 | 22.5 | 0.00 | 0.00 | 0.00 | 60 | 1015.2 |
| 20260507120004 | 14 | 155 | 6.4 | 17.7 | 0.00 | 0.00 | 0.00 | 60 | 1015.2 |
| 20260507115505 | 14 | 179 | 8.0 | 19.3 | 0.00 | 0.00 | 0.00 | 62 | 1015.3 |
| 20260507115003 | 13 | 209 | 8.0 | 24.1 | 0.00 | 0.00 | 0.00 | 61 | 1015.3 |
| 20260507114525 | 13 | 217 | 8.0 | 24.1 | 0.00 | 0.00 | 0.00 | 63 | 1015.4 |
| 20260507114005 | 13 | 212 | 6.4 | 19.3 | 0.00 | 0.00 | 0.00 | 61 | 1015.3 |
| 20260507113504 | 13 | 189 | 8.0 | 24.1 | 0.00 | 0.00 | 0.00 | 62 | 1015.4 |
| 20260507113024 | 13 | 193 | 9.7 | 24.1 | 0.00 | 0.00 | 0.00 | 61 | 1015.4 |
| 20260507112503 | 13 | 210 | 11.3 | 22.5 | 0.00 | 0.00 | 0.00 | 61 | 1015.4 |
| 20260507112004 | 13 | 218 | 11.3 | 24.1 | 0.00 | 0.00 | 0.00 | 61 | 1015.4 |
| 20260507111504 | 13 | 210 | 9.7 | 24.1 | 0.00 | 0.00 | 0.00 | 62 | 1015.4 |
| 20260507111003 | 12 | 208 | 8.0 | 24.1 | 0.00 | 0.00 | 0.00 | 64 | 1015.4 |
| 20260507110504 | 12 | 212 | 8.0 | 24.1 | 0.00 | 0.00 | 0.00 | 63 | 1015.4 |
| 20260507110005 | 12 | 213 | 8.0 | 33.8 | 0.00 | 0.00 | 0.00 | 65 | 1015.3 |
| 20260507105504 | 12 | 202 | 8.0 | 33.8 | 0.00 | 0.00 | 0.00 | 68 | 1015.4 |
| 20260507105003 | 12 | 202 | 8.0 | 25.7 | 0.00 | 0.00 | 0.00 | 68 | 1015.5 |
| 20260507104504 | 11 | 198 | 6.4 | 22.5 | 0.00 | 0.00 | 0.00 | 69 | 1015.5 |
| 20260507104024 | 11 | 199 | 6.4 | 19.3 | 0.00 | 0.00 | 0.00 | 71 | 1015.6 |
| 20260507103524 | 11 | 201 | 4.8 | 19.3 | 0.00 | 0.00 | 0.00 | 72 | 1015.6 |
| 20260507103025 | 11 | 181 | 4.8 | 17.7 | 0.00 | 0.00 | 0.00 | 74 | 1015.7 |
| 20260507102504 | 10 | 195 | 4.8 | 17.7 | 0.00 | 0.00 | 0.00 | 75 | 1015.7 |
| 20260507102006 | 10 | 207 | 4.8 | 16.1 | 0.00 | 0.00 | 0.00 | 75 | 1015.7 |
| 20260507101506 | 10 | 193 | 4.8 | 16.1 | 0.00 | 0.00 | 0.00 | 75 | 1015.7 |
| 20260507101025 | 10 | 185 | 6.4 | 16.1 | 0.00 | 0.00 | 0.00 | 74 | 1015.7 |
| 20260507100503 | 10 | 190 | 4.8 | 16.1 | 0.00 | 0.00 | 0.00 | 74 | 1015.7 |
| 20260507100004 | 10 | 189 | 4.8 | 17.7 | 0.00 | 0.00 | 0.00 | 74 | 1015.7 |
| 20260507095503 | 10 | 192 | 4.8 | 17.7 | 0.00 | 0.00 | 0.00 | 73 | 1015.8 |
| 20260507095003 | 10 | 203 | 4.8 | 16.1 | 0.00 | 0.00 | 0.00 | 74 | 1015.7 |
| 20260507094504 | 10 | 200 | 3.2 | 16.1 | 0.00 | 0.00 | 0.00 | 74 | 1015.7 |
| 20260507094004 | 10 | 175 | 1.6 | 16.1 | 0.00 | 0.00 | 0.00 | 75 | 1015.7 |
| 20260507093525 | 10 | 159 | 1.6 | 16.1 | 0.00 | 0.00 | 0.00 | 75 | 1015.8 |
| 20260507093005 | 10 | 175 | 1.6 | 12.9 | 0.00 | 0.00 | 0.00 | 76 | 1015.8 |
| 20260507092524 | 10 | 180 | 1.6 | 12.9 | 0.00 | 0.00 | 0.00 | 76 | 1015.8 |
| 20260507092003 | 10 | 178 | 1.6 | 17.7 | 0.00 | 0.00 | 0.00 | 76 | 1015.8 |
| 20260507091503 | 9 | 162 | 1.6 | 17.7 | 0.00 | 0.00 | 0.00 | 77 | 1015.8 |
| 20260507091003 | 9 | 165 | 1.6 | 17.7 | 0.00 | 0.00 | 0.00 | 77 | 1015.8 |
| 20260507090504 | 9 | 163 | 1.6 | 17.7 | 0.00 | 0.00 | 0.00 | 76 | 1015.8 |
| 20260507090004 | 9 | 156 | 1.6 | 12.9 | 0.00 | 0.00 | 0.00 | 77 | 1015.8 |
| 20260507085504 | 9 | 170 | 3.2 | 12.9 | 0.00 | 0.00 | 0.00 | 76 | 1015.8 |
| 20260507085004 | 9 | 163 | 3.2 | 19.3 | 0.00 | 0.00 | 0.00 | 76 | 1015.7 |
| 20260507084504 | 9 | 139 | 3.2 | 19.3 | 0.00 | 0.00 | 0.00 | 76 | 1015.7 |
| 20260507084003 | 9 | 141 | 3.2 | 24.1 | 0.00 | 0.00 | 0.00 | 76 | 1015.8 |
| 20260507083504 | 10 | 158 | 3.2 | 24.1 | 0.00 | 0.00 | 0.00 | 76 | 1015.8 |
| 20260507083004 | 10 | 160 | 4.8 | 17.7 | 0.00 | 0.00 | 0.00 | 77 | 1015.8 |
| 20260507082503 | 10 | 148 | 3.2 | 17.7 | 0.00 | 0.00 | 0.00 | 77 | 1015.8 |
| 20260507082003 | 9 | 149 | 3.2 | 16.1 | 0.00 | 0.00 | 0.00 | 77 | 1015.9 |
| 20260507081503 | 9 | 149 | 1.6 | 16.1 | 0.00 | 0.00 | 0.00 | 77 | 1015.8 |
| 20260507081005 | 9 | 149 | 3.2 | 16.1 | 0.00 | 0.00 | 0.00 | 78 | 1015.9 |
| 20260507080503 | 8 | 188 | 3.2 | 16.1 | 0.00 | 0.00 | 0.00 | 78 | 1015.9 |
| 20260507080005 | 8 | 204 | 4.8 | 16.1 | 0.00 | 0.00 | 0.00 | 79 | 1015.9 |
| 20260507075505 | 8 | 193 | 4.8 | 16.1 | 0.00 | 0.00 | 0.00 | 79 | 1015.9 |
| 20260507075005 | 8 | 176 | 3.2 | 16.1 | 0.00 | 0.00 | 0.00 | 79 | 1015.9 |
| 20260507074504 | 8 | 177 | 3.2 | 16.1 | 0.00 | 0.00 | 0.00 | 79 | 1015.8 |
| 20260507074003 | 8 | 181 | 1.6 | 16.1 | 0.00 | 0.00 | 0.00 | 80 | 1015.8 |
| 20260507073504 | 8 | 182 | 1.6 | 12.9 | 0.00 | 0.00 | 0.00 | 80 | 1015.8 |
| 20260507073025 | 8 | 176 | 1.6 | 12.9 | 0.00 | 0.00 | 0.00 | 82 | 1015.8 |
| 20260507072503 | 7 | 163 | 1.6 | 12.9 | 0.00 | 0.00 | 0.00 | 82 | 1015.8 |
| 20260507072025 | 7 | 166 | 1.6 | 11.3 | 0.00 | 0.00 | 0.00 | 83 | 1015.9 |
| 20260507071504 | 7 | 163 | 1.6 | 11.3 | 0.00 | 0.00 | 0.00 | 84 | 1015.8 |
| 20260507071004 | 7 | 157 | 1.6 | 11.3 | 0.00 | 0.00 | 0.00 | 85 | 1015.8 |
| 20260507070503 | 7 | 172 | 0.0 | 11.3 | 0.00 | 0.00 | 0.00 | 86 | 1015.8 |
| 20260507070006 | 6 | 189 | 0.0 | 6.4 | 0.00 | 0.00 | 0.00 | 87 | 1015.9 |
| 20260507065504 | 6 | 191 | 1.6 | 4.8 | 0.00 | 0.00 | 0.00 | 88 | 1015.9 |
| 20260507065004 | 6 | 186 | 1.6 | 4.8 | 0.00 | 0.00 | 0.00 | 88 | 1015.9 |
| 20260507064502 | 6 | 0 | 4.8 | 4.8 | 0.00 | 0.00 | 0.00 | 89 | 1015.9 |
| 20260507064003 | 6 | 0 | 4.8 | 4.8 | 0.00 | 0.00 | 0.00 | 90 | 1015.9 |
| 20260507063503 | 5 | 0 | 1.6 | 1.6 | 0.00 | 0.00 | 0.00 | 91 | 1015.9 |
| 20260507063003 | 5 | 0 | 1.6 | 1.6 | 0.00 | 0.00 | 0.00 | 91 | 1015.8 |
| 20260507062503 | 5 | 0 | 0.0 | 0.0 | 0.00 | 0.00 | 0.00 | 90 | 1015.8 |
| 20260507062002 | 5 | 0 | 0.0 | 0.0 | 0.00 | 0.00 | 0.00 | 91 | 1015.8 |
| 20260507061502 | 4 | 0 | 0.0 | 0.0 | 0.00 | 0.00 | 0.00 | 91 | 1015.8 |
| 20260507061002 | 4 | 0 | 0.0 | 0.0 | 0.00 | 0.00 | 0.00 | 91 | 1015.7 |
| 20260507060523 | 4 | 0 | 1.6 | 1.6 | 0.00 | 0.00 | 0.00 | 91 | 1015.7 |
| 20260507060003 | 3 | 0 | 1.6 | 1.6 | 0.00 | 0.00 | 0.00 | 91 | 1015.7 |
| 20260507055502 | 3 | 0 | 1.6 | 1.6 | 0.00 | 0.00 | 0.00 | 91 | 1015.7 |
| 20260507055002 | 3 | 0 | 1.6 | 1.6 | 0.00 | 0.00 | 0.00 | 92 | 1015.6 |
| 20260507054503 | 3 | 0 | 0.0 | 0.0 | 0.00 | 0.00 | 0.00 | 91 | 1015.6 |
| 20260507054002 | 3 | 0 | 0.0 | 0.0 | 0.00 | 0.00 | 0.00 | 91 | 1015.6 |
| 20260507053503 | 2 | 0 | 0.0 | 0.0 | 0.00 | 0.00 | 0.00 | 91 | 1015.6 |
| 20260507053004 | 2 | 0 | 0.0 | 0.0 | 0.00 | 0.00 | 0.00 | 91 | 1015.5 |
| 20260507052503 | 2 | 0 | 0.0 | 0.0 | 0.00 | 0.00 | 0.00 | 91 | 1015.5 |
| 20260507052003 | 2 | 0 | 0.0 | 0.0 | 0.00 | 0.00 | 0.00 | 91 | 1015.6 |
| 20260507051502 | 2 | 0 | 0.0 | 0.0 | 0.00 | 0.00 | 0.00 | 91 | 1015.6 |
| 20260507051002 | 1 | 0 | 0.0 | 0.0 | 0.00 | 0.00 | 0.00 | 90 | 1015.6 |
| 20260507050502 | 1 | 0 | 0.0 | 0.0 | 0.00 | 0.00 | 0.00 | 91 | 1015.6 |
| 20260507050003 | 1 | 0 | 0.0 | 0.0 | 0.00 | 0.00 | 0.00 | 90 | 1015.5 |
| 20260507045524 | 1 | 0 | 0.0 | 0.0 | 0.00 | 0.00 | 0.00 | 90 | 1015.6 |
| 20260507045002 | 1 | 0 | 0.0 | 0.0 | 0.00 | 0.00 | 0.00 | 89 | 1015.6 |
| 20260507044502 | 1 | 0 | 0.0 | 0.0 | 0.00 | 0.00 | 0.00 | 89 | 1015.6 |
| 20260507044002 | 1 | 0 | 0.0 | 0.0 | 0.00 | 0.00 | 0.00 | 89 | 1015.6 |
| 20260507043524 | 1 | 0 | 0.0 | 0.0 | 0.00 | 0.00 | 0.00 | 89 | 1015.7 |
| 20260507043002 | 1 | 0 | 0.0 | 0.0 | 0.00 | 0.00 | 0.00 | 89 | 1015.6 |
| 20260507042502 | 1 | 0 | 0.0 | 0.0 | 0.00 | 0.00 | 0.00 | 89 | 1015.6 |
| 20260507042002 | 1 | 0 | 0.0 | 0.0 | 0.00 | 0.00 | 0.00 | 89 | 1015.5 |
| 20260507041523 | 1 | 0 | 0.0 | 0.0 | 0.00 | 0.00 | 0.00 | 89 | 1015.6 |
| 20260507041003 | 1 | 0 | 0.0 | 0.0 | 0.00 | 0.00 | 0.00 | 89 | 1015.6 |
| 20260507040503 | 1 | 0 | 0.0 | 0.0 | 0.00 | 0.00 | 0.00 | 89 | 1015.6 |
| 20260507040002 | 1 | 0 | 0.0 | 0.0 | 0.00 | 0.00 | 0.00 | 89 | 1015.6 |
| 20260507035503 | 1 | 0 | 0.0 | 0.0 | 0.00 | 0.00 | 0.00 | 89 | 1015.7 |
| 20260507035024 | 1 | 0 | 0.0 | 0.0 | 0.00 | 0.00 | 0.00 | 89 | 1015.6 |
| 20260507034503 | 1 | 0 | 0.0 | 0.0 | 0.00 | 0.00 | 0.00 | 89 | 1015.6 |
| 20260507034003 | 1 | 0 | 0.0 | 0.0 | 0.00 | 0.00 | 0.00 | 88 | 1015.7 |
| 20260507033503 | 1 | 0 | 0.0 | 0.0 | 0.00 | 0.00 | 0.00 | 88 | 1015.7 |
| 20260507033003 | 1 | 0 | 0.0 | 0.0 | 0.00 | 0.00 | 0.00 | 88 | 1015.7 |
| 20260507032503 | 1 | 0 | 0.0 | 0.0 | 0.00 | 0.00 | 0.00 | 88 | 1015.8 |
| 20260507032003 | 1 | 0 | 0.0 | 0.0 | 0.00 | 0.00 | 0.00 | 88 | 1015.8 |
| 20260507031502 | 1 | 0 | 0.0 | 0.0 | 0.00 | 0.00 | 0.00 | 88 | 1015.7 |
| 20260507031002 | 1 | 0 | 0.0 | 0.0 | 0.00 | 0.00 | 0.00 | 88 | 1015.7 |
| 20260507030502 | 1 | 0 | 0.0 | 0.0 | 0.00 | 0.00 | 0.00 | 88 | 1015.7 |
| 20260507030024 | 1 | 0 | 0.0 | 0.0 | 0.00 | 0.00 | 0.00 | 88 | 1015.7 |
| 20260507025502 | 1 | 0 | 0.0 | 0.0 | 0.00 | 0.00 | 0.00 | 88 | 1015.7 |
| 20260507025002 | 1 | 0 | 0.0 | 0.0 | 0.00 | 0.00 | 0.00 | 88 | 1015.7 |
| 20260507024502 | 1 | 0 | 0.0 | 0.0 | 0.00 | 0.00 | 0.00 | 88 | 1015.7 |
| 20260507024003 | 1 | 0 | 0.0 | 0.0 | 0.00 | 0.00 | 0.00 | 88 | 1015.7 |
| 20260507023502 | 1 | 0 | 0.0 | 0.0 | 0.00 | 0.00 | 0.00 | 88 | 1015.7 |
| 20260507023002 | 1 | 0 | 0.0 | 0.0 | 0.00 | 0.00 | 0.00 | 88 | 1015.7 |
| 20260507022502 | 1 | 0 | 0.0 | 0.0 | 0.00 | 0.00 | 0.00 | 88 | 1015.6 |
| 20260507022002 | 1 | 0 | 0.0 | 0.0 | 0.00 | 0.00 | 0.00 | 88 | 1015.7 |
| 20260507021503 | 1 | 0 | 1.6 | 1.6 | 0.00 | 0.00 | 0.00 | 87 | 1015.7 |
| 20260507021002 | 1 | 0 | 1.6 | 1.6 | 0.00 | 0.00 | 0.00 | 87 | 1015.7 |
| 20260507020502 | 1 | 0 | 1.6 | 1.6 | 0.00 | 0.00 | 0.00 | 87 | 1015.7 |
| 20260507020023 | 1 | 0 | 1.6 | 1.6 | 0.00 | 0.00 | 0.00 | 87 | 1015.7 |
| 20260507015502 | 1 | 0 | 1.6 | 1.6 | 0.00 | 0.00 | 0.00 | 87 | 1015.7 |
| 20260507015004 | 1 | 0 | 1.6 | 1.6 | 0.00 | 0.00 | 0.00 | 87 | 1015.8 |
| 20260507014502 | 1 | 0 | 1.6 | 1.6 | 0.00 | 0.00 | 0.00 | 87 | 1015.8 |
| 20260507014002 | 1 | 0 | 1.6 | 1.6 | 0.00 | 0.00 | 0.00 | 86 | 1015.8 |
| 20260507013502 | 1 | 0 | 0.0 | 0.0 | 0.00 | 0.00 | 0.00 | 86 | 1015.9 |
| 20260507013024 | 1 | 0 | 0.0 | 0.0 | 0.00 | 0.00 | 0.00 | 86 | 1015.9 |
| 20260507012504 | 1 | 0 | 0.0 | 0.0 | 0.00 | 0.00 | 0.00 | 86 | 1015.8 |
| 20260507012002 | 1 | 0 | 0.0 | 0.0 | 0.00 | 0.00 | 0.00 | 86 | 1015.8 |
| 20260507011502 | 1 | 0 | 0.0 | 0.0 | 0.00 | 0.00 | 0.00 | 86 | 1015.9 |
| 20260507011024 | 1 | 0 | 0.0 | 0.0 | 0.00 | 0.00 | 0.00 | 86 | 1015.9 |
| 20260507010503 | 1 | 0 | 0.0 | 0.0 | 0.00 | 0.00 | 0.00 | 86 | 1015.9 |
| 20260507010002 | 1 | 0 | 0.0 | 0.0 | 0.00 | 0.00 | 0.00 | 86 | 1015.9 |
| 20260507005524 | 1 | 0 | 0.0 | 0.0 | 0.00 | 0.00 | 0.00 | 86 | 1015.9 |
| 20260507005003 | 1 | 0 | 0.0 | 0.0 | 0.00 | 0.00 | 0.00 | 86 | 1015.9 |
| 20260507004523 | 1 | 0 | 0.0 | 0.0 | 0.00 | 0.00 | 0.00 | 86 | 1015.9 |
| 20260507004003 | 1 | 0 | 0.0 | 0.0 | 0.00 | 0.00 | 0.00 | 85 | 1015.9 |
| 20260507003502 | 1 | 0 | 0.0 | 0.0 | 0.00 | 0.00 | 0.00 | 85 | 1015.9 |
| 20260507003024 | 1 | 0 | 0.0 | 0.0 | 0.00 | 0.00 | 0.00 | 85 | 1015.9 |
| 20260507002503 | 1 | 0 | 0.0 | 0.0 | 0.00 | 0.00 | 0.00 | 84 | 1015.9 |
| 20260507002002 | 1 | 0 | 0.0 | 0.0 | 0.00 | 0.00 | 0.00 | 84 | 1015.9 |
| 20260507001502 | 1 | 0 | 0.0 | 0.0 | 0.00 | 0.00 | 0.00 | 84 | 1015.9 |
| 20260507001003 | 2 | 0 | 0.0 | 0.0 | 0.00 | 0.00 | 0.00 | 84 | 1016.0 |
| 20260507000503 | 2 | 0 | 0.0 | 0.0 | 0.00 | 0.00 | 0.00 | 84 | 1016.0 |
| 20260507000002 | 2 | 0 | 0.0 | 0.0 | 0.00 | 0.00 | 0.00 | 84 | 1015.9 |
| 20260506235503 | 2 | 0 | 0.0 | 0.0 | 0.00 | 0.00 | 0.00 | 84 | 1015.9 |
| 20260506235002 | 2 | 0 | 0.0 | 0.0 | 0.00 | 0.00 | 0.00 | 84 | 1016.0 |
| 20260506234523 | 2 | 0 | 0.0 | 0.0 | 0.00 | 0.00 | 0.00 | 84 | 1016.0 |
| 20260506234002 | 2 | 0 | 0.0 | 0.0 | 0.00 | 0.00 | 0.00 | 84 | 1016.1 |
| 20260506233502 | 2 | 0 | 0.0 | 0.0 | 0.00 | 0.00 | 0.00 | 84 | 1016.0 |
| 20260506233023 | 2 | 0 | 0.0 | 0.0 | 0.00 | 0.00 | 0.00 | 83 | 1016.1 |
| 20260506232503 | 2 | 0 | 0.0 | 0.0 | 0.00 | 0.00 | 0.00 | 83 | 1016.1 |
| 20260506232002 | 2 | 0 | 0.0 | 0.0 | 0.00 | 0.00 | 0.00 | 84 | 1016.1 |
| 20260506231523 | 2 | 0 | 0.0 | 0.0 | 0.00 | 0.00 | 0.00 | 83 | 1016.1 |
| 20260506231002 | 2 | 0 | 0.0 | 0.0 | 0.00 | 0.00 | 0.00 | 83 | 1016.1 |
| 20260506230502 | 2 | 0 | 1.6 | 1.6 | 0.00 | 0.00 | 0.00 | 83 | 1016.1 |
| 20260506230003 | 2 | 0 | 1.6 | 1.6 | 0.00 | 0.00 | 0.00 | 83 | 1016.1 |
| 20260506225502 | 3 | 0 | 1.6 | 1.6 | 0.00 | 0.00 | 0.00 | 83 | 1016.1 |
| 20260506225002 | 3 | 0 | 1.6 | 1.6 | 0.00 | 0.00 | 0.00 | 82 | 1016.1 |
| 20260506224503 | 3 | 0 | 1.6 | 1.6 | 0.00 | 0.00 | 0.00 | 82 | 1016.1 |
| 20260506224023 | 3 | 0 | 1.6 | 1.6 | 0.00 | 0.00 | 0.00 | 82 | 1016.1 |
| 20260506223502 | 3 | 0 | 1.6 | 1.6 | 0.00 | 0.00 | 0.00 | 81 | 1016.1 |
| 20260506223002 | 3 | 0 | 1.6 | 1.6 | 0.00 | 0.00 | 0.00 | 81 | 1016.1 |
| 20260506222503 | 3 | 0 | 1.6 | 1.6 | 0.00 | 0.00 | 0.00 | 80 | 1016.2 |
| 20260506222003 | 3 | 0 | 1.6 | 1.6 | 0.00 | 0.00 | 0.00 | 80 | 1016.1 |
| 20260506221504 | 3 | 0 | 0.0 | 0.0 | 0.00 | 0.00 | 0.00 | 79 | 1016.1 |
| 20260506221002 | 3 | 0 | 1.6 | 1.6 | 0.00 | 0.00 | 0.00 | 79 | 1016.1 |
| 20260506220524 | 3 | 0 | 1.6 | 1.6 | 0.00 | 0.00 | 0.00 | 79 | 1016.1 |
| 20260506220003 | 3 | 0 | 1.6 | 1.6 | 0.00 | 0.00 | 0.00 | 79 | 1016.1 |
| 20260506215502 | 3 | 0 | 1.6 | 1.6 | 0.00 | 0.00 | 0.00 | 79 | 1016.1 |
| 20260506215002 | 4 | 0 | 0.0 | 0.0 | 0.00 | 0.00 | 0.00 | 78 | 1016.1 |
| 20260506214503 | 4 | 0 | 0.0 | 0.0 | 0.00 | 0.00 | 0.00 | 78 | 1016.1 |
| 20260506214003 | 4 | 0 | 1.6 | 1.6 | 0.00 | 0.00 | 0.00 | 77 | 1016.1 |
| 20260506213502 | 4 | 0 | 1.6 | 1.6 | 0.00 | 0.00 | 0.00 | 76 | 1016.1 |
| 20260506213023 | 4 | 0 | 1.6 | 1.6 | 0.00 | 0.00 | 0.00 | 76 | 1016.1 |
| 20260506212502 | 5 | 0 | 1.6 | 1.6 | 0.00 | 0.00 | 0.00 | 76 | 1016.1 |
| 20260506212002 | 5 | 0 | 1.6 | 1.6 | 0.00 | 0.00 | 0.00 | 76 | 1016.1 |
| 20260506211502 | 5 | 0 | 1.6 | 1.6 | 0.00 | 0.00 | 0.00 | 76 | 1016.1 |
| 20260506211002 | 5 | 0 | 1.6 | 1.6 | 0.00 | 0.00 | 0.00 | 76 | 1016.1 |
| 20260506210503 | 5 | 0 | 1.6 | 1.6 | 0.00 | 0.00 | 0.00 | 75 | 1016.0 |
| 20260506210002 | 5 | 0 | 0.0 | 0.0 | 0.00 | 0.00 | 0.00 | 75 | 1016.0 |
| 20260506205503 | 5 | 0 | 0.0 | 0.0 | 0.00 | 0.00 | 0.00 | 74 | 1016.0 |
| 20260506205003 | 5 | 0 | 1.6 | 1.6 | 0.00 | 0.00 | 0.00 | 74 | 1016.0 |
| 20260506204503 | 6 | 0 | 1.6 | 1.6 | 0.00 | 0.00 | 0.00 | 74 | 1016.0 |
| 20260506204003 | 6 | 0 | 0.0 | 0.0 | 0.00 | 0.00 | 0.00 | 74 | 1016.0 |
| 20260506203524 | 6 | 0 | 0.0 | 0.0 | 0.00 | 0.00 | 0.00 | 73 | 1016.1 |
| 20260506203002 | 6 | 0 | 1.6 | 1.6 | 0.00 | 0.00 | 0.00 | 73 | 1016.1 |
| 20260506202502 | 6 | 0 | 1.6 | 1.6 | 0.00 | 0.00 | 0.00 | 73 | 1016.1 |
| 20260506202002 | 6 | 0 | 1.6 | 1.6 | 0.00 | 0.00 | 0.00 | 72 | 1016.0 |
| 20260506201503 | 6 | 0 | 1.6 | 1.6 | 0.00 | 0.00 | 0.00 | 72 | 1016.0 |
| 20260506201003 | 6 | 0 | 1.6 | 1.6 | 0.00 | 0.00 | 0.00 | 71 | 1016.0 |
| 20260506200523 | 7 | 0 | 1.6 | 1.6 | 0.00 | 0.00 | 0.00 | 71 | 1016.0 |
| 20260506200002 | 7 | 0 | 1.6 | 1.6 | 0.00 | 0.00 | 0.00 | 70 | 1016.0 |
| 20260506195524 | 7 | 0 | 1.6 | 1.6 | 0.00 | 0.00 | 0.00 | 70 | 1015.9 |
| 20260506195002 | 7 | 0 | 0.0 | 1.6 | 0.00 | 0.00 | 0.00 | 69 | 1015.9 |
| 20260506194503 | 7 | 0 | 0.0 | 4.8 | 0.00 | 0.00 | 0.00 | 69 | 1015.8 |
| 20260506194002 | 7 | 0 | 0.0 | 4.8 | 0.00 | 0.00 | 0.00 | 69 | 1015.8 |
| 20260506193504 | 7 | 100 | 0.0 | 4.8 | 0.00 | 0.00 | 0.00 | 68 | 1015.8 |
| 20260506193004 | 7 | 100 | 0.0 | 4.8 | 0.00 | 0.00 | 0.00 | 68 | 1015.7 |
| 20260506192503 | 8 | 99 | 1.6 | 4.8 | 0.00 | 0.00 | 0.00 | 67 | 1015.7 |
| 20260506192002 | 8 | 99 | 1.6 | 8.0 | 0.00 | 0.00 | 0.00 | 66 | 1015.7 |
| 20260506191004 | 8 | 113 | 1.6 | 6.4 | 0.00 | 0.00 | 0.00 | 65 | 1015.7 |
| 20260506190523 | 8 | 113 | 1.6 | 6.4 | 0.00 | 0.00 | 0.00 | 65 | 1015.7 |
| 20260506190002 | 8 | 99 | 1.6 | 6.4 | 0.00 | 0.00 | 0.00 | 64 | 1015.7 |
| 20260506185502 | 8 | 94 | 1.6 | 16.1 | 0.00 | 0.00 | 0.00 | 64 | 1015.7 |
| 20260506185002 | 8 | 97 | 1.6 | 16.1 | 0.00 | 0.00 | 0.00 | 63 | 1015.6 |
| 20260506184523 | 8 | 99 | 1.6 | 4.8 | 0.00 | 0.00 | 0.00 | 63 | 1015.6 |
| 20260506184002 | 8 | 110 | 1.6 | 12.9 | 0.00 | 0.00 | 0.00 | 62 | 1015.5 |
| 20260506183503 | 8 | 110 | 1.6 | 12.9 | 0.00 | 0.00 | 0.00 | 62 | 1015.5 |
| 20260506183002 | 8 | 106 | 1.6 | 12.9 | 0.00 | 0.00 | 0.00 | 62 | 1015.5 |
| 20260506182503 | 9 | 106 | 1.6 | 12.9 | 0.00 | 0.00 | 0.00 | 62 | 1015.6 |
| 20260506182002 | 9 | 102 | 1.6 | 12.9 | 0.00 | 0.00 | 0.00 | 63 | 1015.5 |
| 20260506181503 | 9 | 105 | 1.6 | 6.4 | 0.00 | 0.00 | 0.00 | 62 | 1015.5 |
| 20260506181003 | 9 | 123 | 3.2 | 12.9 | 0.00 | 0.00 | 0.00 | 62 | 1015.5 |
| 20260506180523 | 9 | 131 | 3.2 | 12.9 | 0.00 | 0.00 | 0.00 | 60 | 1015.5 |